Home   Weather   Buenos Aires   Past weeks

Flag for Argentina Past Weather in Buenos Aires, Argentina — Yesterday and Last 2 Weeks

Now
55 °F

Passing clouds.


Feels Like: 52 °F
Forecast: 54 / 60 °F
Wind: 12 mph from Southeast

Location: Buenos Aires Airport

Current Time: May 27, 2017 at 10:16:59 pm

Latest Report: May 27, 2017 at 9:00 pm


Visibility: N/A

Pressure: 30.39 "Hg

Humidity: 63%

Dew Point: 43 °F

Location of Buenos AiresLocation

Past Weather in Buenos Aires — Graph

°F

Buenos Aires Temperature Yesterday

Maximum temperature yesterday: 63 °F (at 2:00 pm)
Minimum temperature yesterday: 55 °F (at 5:00 am)
Average temperature yesterday: 58 °F

High & Low Weather Summary for the Past Weeks

 TemperatureHumidityPressure
High70 °F (May 15, 4:00 pm)100% (May 13, 6:00 am)30.42 "Hg (May 13, 6:00 am)
Low48 °F (May 27, 8:00 am)34% (May 26, 3:00 pm)29.62 "Hg (May 19, 5:00 am)
Average60 °F80%29.95 "Hg
* Reported May 12 8:00 pm — May 27 8:00 pm, Buenos Aires. Weather by CustomWeather, © 2017

Note: Actual official high and low records may vary slightly from our data, if they occured in-between our weather recording intervals... More about our weather records

Advertising

Buenos Aires Weather History for the Previous 24 Hours

Scroll right to see more
 ConditionsComfort  
Time TempWeatherWind HumidityBarometerVisibility
8:00 pm
Sat, May 27
55 °FPassing clouds.9 mph63%30.39 "HgN/A
7:00 pm55 °FPassing clouds.7 mph63%30.39 "HgN/A
6:00 pm55 °FPassing clouds.14 mph59%30.36 "HgN/A
5:00 pm55 °FPartly sunny.14 mph63%30.36 "HgN/A
4:00 pm57 °FBroken clouds.13 mph63%30.36 "HgN/A
3:00 pm57 °FBroken clouds.13 mph55%30.39 "HgN/A
2:00 pm57 °FBroken clouds.15 mph59%30.39 "HgN/A
1:00 pm55 °FScattered clouds.13 mph59%30.42 "HgN/A
12:00 pm55 °FPassing clouds.9 mph55%30.42 "HgN/A
11:00 am54 °FPassing clouds.8 mph54%30.42 "HgN/A
10:00 am52 °FSunny.8 mph58%30.42 "Hg10 mi
9:00 am50 °FSunny.8 mph62%30.42 "Hg10 mi
8:00 am48 °FSunny.8 mph66%30.42 "Hg10 mi
7:00 am50 °FClear.8 mph62%30.39 "Hg10 mi
6:00 am50 °FClear.6 mph67%30.39 "Hg10 mi
5:00 am50 °FPassing clouds.6 mph71%30.36 "HgN/A
4:00 am52 °FClear.9 mph72%30.36 "Hg10 mi
2:00 am54 °FClear.9 mph67%30.36 "Hg10 mi
1:00 am54 °FClear.9 mph63%30.36 "Hg10 mi
11:00 pm
Fri, May 26
55 °FClear.8 mph55%30.30 "Hg10 mi
10:00 pm55 °FClear.3 mph55%30.30 "Hg10 mi
Weather by CustomWeather, © 2017

See weather overviewHow to use our weather pages